Location: Cerezo de Arriba
(41.2389°N, 3.5585°W)
Time: 04:20:27
(UTC+00:00)

SL-8 Rocket - Pass Details

Date: 19 May 2025
Orbit: 955 x 990 km, 82.9° (Epoch: 23 June)

Event Time Altitude Azimuth Distance (km) Brightness Sun altitude
Rises 21:18:07 0° 356° (N) 3,649 7.9 -16.9°
Reaches altitude 10° 21:20:41 10° 1° (N) 2,697 7.0 -17.2°
Maximum altitude 21:26:44 57° 79° (E) 1,118 4.1 -17.9°
Enters shadow 21:29:41 30° 145° (SE) 1,639 4.6 -18.3°
